Regional Weather Roundup
Issued by NWS New Orleans/Baton Rouge, LA

Home | Current Version | Previous Version | Graphics & Text | Print | Product List | Glossary On
Versions: 1 2 3 4 5 6 7 8 9 10 11 12 13 14 15 16 17 18 19 20 21 22 23 24 25 26 27 28 29 30 31 32 33 34 35 36 37 38 39 40 41 42 43 44 45 46 47 48 49 50
417
ASUS44 KLIX 191710
RWRLIX
NEW ORLEANS REGIONAL WEATHER ROUNDUP
NATIONAL WEATHER SERVICE NEW ORLEANS LA
1200 PM CDT FRI SEP 19 2014

NOTE: "FAIR" INDICATES FEW OR NO CLOUDS BELOW 12,000 FEET WITH NO
      SIGNIFICANT WEATHER AND/OR OBSTRUCTIONS TO VISIBILITY.
      SKY/WX - SKY CONDITION AND SIGNIFICANT WEATHER.
      TMP - AIR TEMPERATURE.     DP    - DEWPOINT TEMPERATURE.
      RH  - RELATIVE HUMIDITY.   PRES  - PRESSURE.
      HI  - HEAT INDEX.          WCI   - WIND CHILL INDEX.

*  THESE STATIONS ARE NOT NWS OR FAA STATIONS AND ARE NOT UNDER
   NWS QUALITY CONTROL.

LAZ038-040-048-061>063-065>067-069-191800-
SOUTHEAST LOUISIANA

CITY           SKY/WX    TMP DP  RH WIND       PRES   REMARKS
N.O. AUDUBON     N/A     86  71  61 MISG        N/A
N.O. INTL ARPT PTSUNNY   84  67  56 E9        29.97S
N.O. LAKEFRONT MOSUNNY   84  70  62 E14       29.98R
N.O. DOWNTOWN* PTSUNNY   84  66  54 SE5       29.98S
SLIDELL        MOSUNNY   84  71  65 E8        29.98S
BATON ROUGE    PTSUNNY   83  71  67 SE9       29.98S
BOOTHVILLE     RAIN      77  74  90 SE12G18   29.96S FOG
BELLE CHASSE   PTSUNNY   84  68  58 E13       29.96S
BOGALUSA*        N/A     86  68  53 CALM      30.00S
GALLIANO*      NOT AVBL
NEW ROADS*       N/A     83  72  69 E6        29.99S
GONZALES*      PTSUNNY   84  75  74 NE8       29.97S
HAMMOND*       MOSUNNY   84  68  58 SE5       30.00S
HOUMA*         PTSUNNY   84  54  34 MISG      29.96S
PORT FOURCHON* CLOUDY    81  73  78 E12G18    29.98S

$$

MSZ070-080>082-191800-
SOUTHERN MISSISSIPPI

CITY           SKY/WX    TMP DP  RH WIND       PRES   REMARKS
MCCOMB         MOSUNNY   82  67  60 E6        30.01S
GULFPORT       MOSUNNY   84  70  62 E8        29.97F
BILOXI         MOSUNNY   83  71  66 E8        29.98F
PASCAGOULA     PTSUNNY   82  71  69 E6        29.99S
STENNIS ARPT*  MOSUNNY   82  68  61 SE7       29.98F

$$

COASTAL OBSERVATIONS
LAKE AND NEARSHORE STATIONS

STATION/POSITION TIME  TEMP    WIND        PRES    WAVE
                       AIR SEA DIR/SP/G            HT/PER
                 (UTC) (F)     (DEG/KT/KT) (MB)    (FT/S)
PASCAGOULA       1700   82      70/ 10/ 13 1014.8
WAVELAND YACHT   1700   82     110/  5/  7 1014.6
GRAND ISLE       1700   81 84  100/ 11/ 16 1014.9
SOUTHWEST PASS   1700   80 90  110/ 23/ 28 1014.4
NEW CANAL        1700   82 81   80/ 10/ 13 1015.3
SHELL BEACH      1700   81 78   90/  9/ 14 1014.7

OFFSHORE STATIONS

STATION/POSITION TIME  TEMP    WIND        PRES    WAVE
                       AIR SEA DIR/SP/G            HT/PER
                 (UTC) (F)     (DEG/KT/KT) (MB)    (FT/S)
64 S DAUPHIN ISL 1640   78 84   90/ 23/ 27 1014.8    4/ 5

$$




USA.gov is the U.S. government's official web portal to all federal, state and local government web resources and services.